When you browse on this site, cookies collect data to enhance your experience and personalize the content and advertising you see.
Visit our Privacy Policy to learn more. By continuing to use the site, you agree to this use of cookies and data.
  • In United Kingdom
  • List of Countries
  • For 7 days
  • Water Temperature
  • Weather Map
  • Weather Widgets
  • user-avatar
    Login

    Hourly Weather Bydgoszcz

    Today, 20 September, Friday

    Time Temperature Precipitation Wind Pressure Humidity
    00:00 +8°C° 0 mm 3 mps 763 mmHg 78%
    01:00 +8°C° 0 mm 3 mps 763 mmHg 79%
    02:00 +7°C° 0 mm 3 mps 763 mmHg 79%
    03:00 +7°C° 0 mm 3 mps 763 mmHg 79%
    04:00 +7°C° 0 mm 3 mps 763 mmHg 78%
    05:00 +7°C° 0 mm 3 mps 763 mmHg 76%
    06:00 +8°C° 0 mm 3 mps 763 mmHg 74%
    07:00 +8°C° 0 mm 3 mps 763 mmHg 72%
    08:00 +10°C° 0 mm 3 mps 763 mmHg 64%
    09:00 +12°C° 0 mm 3 mps 763 mmHg 57%
    10:00 +14°C° 0 mm 3 mps 763 mmHg 49%
    11:00 +14°C° 0 mm 3 mps 763 mmHg 48%
    12:00 +15°C° 0 mm 4 mps 763 mmHg 47%
    13:00 +15°C° 0 mm 4 mps 763 mmHg 45%
    14:00 +16°C° 0 mm 3 mps 762 mmHg 51%
    15:00 +14°C° 0 mm 3 mps 762 mmHg 57%
    16:00 +13°C° 0 mm 3 mps 762 mmHg 63%
    17:00 +13°C° 0 mm 3 mps 762 mmHg 66%
    18:00 +12°C° 0 mm 3 mps 762 mmHg 68%
    19:00 +12°C° 0 mm 3 mps 762 mmHg 71%
    20:00 +12°C° 0 mm 3 mps 762 mmHg 75%
    21:00 +11°C° 0 mm 4 mps 761 mmHg 80%
    22:00 +11°C° 0 mm 4 mps 761 mmHg 84%
    23:00 +11°C° 0 mm 4 mps 761 mmHg 87%

    Tomorrow, 21 September, Saturday

    Time Temperature Precipitation Wind Pressure Humidity
    00:00 +10°C° 0 mm 4 mps 761 mmHg 90%
    01:00 +10°C° 0 mm 4 mps 761 mmHg 92%
    02:00 +10°C° 0 mm 4 mps 761 mmHg 93%
    03:00 +10°C° 0 mm 4 mps 761 mmHg 93%
    04:00 +10°C° 0 mm 4 mps 761 mmHg 93%
    05:00 +10°C° 0 mm 4 mps 761 mmHg 92%
    06:00 +11°C° 0 mm 4 mps 761 mmHg 90%
    07:00 +11°C° 0 mm 4 mps 760 mmHg 89%
    08:00 +12°C° 0 mm 4 mps 761 mmHg 87%
    09:00 +12°C° 0 mm 4 mps 761 mmHg 85%
    10:00 +13°C° 0 mm 4 mps 761 mmHg 82%
    11:00 +14°C° 0 mm 4 mps 761 mmHg 79%
    12:00 +14°C° 0 mm 4 mps 761 mmHg 75%
    13:00 +15°C° 0 mm 4 mps 760 mmHg 72%
    14:00 +16°C° 0 mm 3 mps 760 mmHg 70%
    15:00 +17°C° 0 mm 3 mps 760 mmHg 68%
    16:00 +17°C° 0 mm 3 mps 760 mmHg 67%
    17:00 +16°C° 0 mm 2 mps 760 mmHg 73%
    18:00 +14°C° 0 mm 1 mps 760 mmHg 80%
    19:00 +13°C° 0 mm 1 mps 760 mmHg 86%
    20:00 +12°C° 0 mm 1 mps 760 mmHg 87%
    21:00 +12°C° 0 mm 1 mps 760 mmHg 88%
    22:00 +12°C° 0 mm 1 mps 760 mmHg 89%
    23:00 +12°C° 0 mm 1 mps 760 mmHg 90%

    Day after tomorrow, 22 September, Sunday

    Time Temperature Precipitation Wind Pressure Humidity
    00:00 +11°C° 0 mm 1 mps 759 mmHg 90%
    01:00 +11°C° 0 mm 1 mps 759 mmHg 91%
    02:00 +11°C° 0 mm 1 mps 759 mmHg 91%
    03:00 +11°C° 0 mm 1 mps 759 mmHg 91%
    04:00 +11°C° 0 mm 1 mps 759 mmHg 91%
    05:00 +12°C° 0 mm 1 mps 759 mmHg 88%
    06:00 +12°C° 0 mm 1 mps 759 mmHg 86%
    07:00 +13°C° 0 mm 1 mps 759 mmHg 84%
    08:00 +15°C° 0 mm 1 mps 758 mmHg 75%
    09:00 +18°C° 0 mm 1 mps 758 mmHg 66%
    10:00 +20°C° 0 mm 1 mps 758 mmHg 57%
    11:00 +20°C° 0 mm 2 mps 758 mmHg 53%
    12:00 +21°C° 0 mm 2 mps 758 mmHg 48%
    13:00 +23°C° 0 mm 2 mps 757 mmHg 44%
    14:00 +23°C° 0 mm 2 mps 757 mmHg 45%
    15:00 +23°C° 0 mm 2 mps 756 mmHg 46%
    16:00 +23°C° 0 mm 2 mps 756 mmHg 47%
    17:00 +20°C° 0 mm 2 mps 756 mmHg 51%
    18:00 +18°C° 0 mm 2 mps 756 mmHg 56%
    19:00 +16°C° 0 mm 2 mps 755 mmHg 61%
    20:00 +16°C° 0 mm 2 mps 755 mmHg 61%
    21:00 +15°C° 0 mm 2 mps 755 mmHg 62%
    22:00 +15°C° 0 mm 2 mps 755 mmHg 62%
    23:00 +14°C° 0 mm 2 mps 755 mmHg 62%

    23 September, Monday

    Time Temperature Precipitation Wind Pressure Humidity
    00:00 +14°C° 0 mm 2 mps 755 mmHg 63%
    01:00 +13°C° 0 mm 2 mps 754 mmHg 64%
    02:00 +13°C° 0 mm 2 mps 754 mmHg 65%
    03:00 +13°C° 0 mm 2 mps 754 mmHg 66%
    04:00 +12°C° 0 mm 3 mps 754 mmHg 68%
    05:00 +12°C° 0 mm 3 mps 753 mmHg 68%
    06:00 +12°C° 0 mm 3 mps 753 mmHg 69%
    07:00 +12°C° 0 mm 3 mps 753 mmHg 69%
    08:00 +14°C° 0 mm 4 mps 753 mmHg 63%
    09:00 +17°C° 0 mm 4 mps 753 mmHg 57%
    10:00 +19°C° 0 mm 5 mps 753 mmHg 51%
    11:00 +20°C° 0 mm 5 mps 752 mmHg 48%
    12:00 +21°C° 0 mm 5 mps 752 mmHg 44%
    13:00 +22°C° 0 mm 5 mps 752 mmHg 41%
    14:00 +22°C° 0 mm 4 mps 751 mmHg 42%
    15:00 +21°C° 0 mm 4 mps 751 mmHg 44%
    16:00 +21°C° 0 mm 3 mps 751 mmHg 46%
    17:00 +20°C° 0 mm 3 mps 751 mmHg 51%
    18:00 +18°C° 0 mm 3 mps 751 mmHg 57%
    19:00 +16°C° 0 mm 2 mps 751 mmHg 63%
    20:00 +15°C° 0 mm 2 mps 752 mmHg 66%
    21:00 +15°C° 0 mm 2 mps 752 mmHg 69%
    22:00 +14°C° 0 mm 2 mps 752 mmHg 72%
    23:00 +13°C° 0 mm 2 mps 752 mmHg 77%

    24 September, Tuesday

    Time Temperature Precipitation Wind Pressure Humidity
    00:00 +13°C° 0 mm 2 mps 752 mmHg 81%
    01:00 +12°C° 0 mm 2 mps 752 mmHg 86%
    02:00 +12°C° 0 mm 1 mps 753 mmHg 88%
    03:00 +12°C° 0 mm 1 mps 753 mmHg 90%
    04:00 +11°C° 0 mm 1 mps 753 mmHg 92%
    05:00 +12°C° 0 mm 1 mps 753 mmHg 91%
    06:00 +12°C° 0 mm 1 mps 753 mmHg 89%
    07:00 +13°C° 0 mm 1 mps 753 mmHg 88%
    08:00 +15°C° 0 mm 1 mps 754 mmHg 80%
    09:00 +18°C° 0 mm 1 mps 754 mmHg 72%
    10:00 +19°C° 0 mm 1 mps 755 mmHg 64%
    11:00 +20°C° 0 mm 1 mps 754 mmHg 60%
    12:00 +21°C° 0 mm 1 mps 754 mmHg 55%
    13:00 +23°C° 0 mm 1 mps 754 mmHg 51%
    14:00 +22°C° 0 mm 1 mps 754 mmHg 51%
    15:00 +22°C° 0 mm 1 mps 754 mmHg 51%
    16:00 +22°C° 0 mm 1 mps 754 mmHg 50%
    17:00 +21°C° 0 mm 1 mps 754 mmHg 56%
    18:00 +19°C° 0 mm 1 mps 754 mmHg 61%
    19:00 +18°C° 0 mm 1 mps 754 mmHg 66%
    20:00 +16°C° 0 mm 1 mps 754 mmHg 68%
    21:00 +16°C° 0 mm 1 mps 754 mmHg 69%
    22:00 +16°C° 0 mm 2 mps 754 mmHg 71%
    23:00 +16°C° 0 mm 2 mps 754 mmHg 72%

    25 September, Wednesday

    Time Temperature Precipitation Wind Pressure Humidity
    00:00 +16°C° 0 mm 2 mps 753 mmHg 73%
    01:00 +15°C° 0 mm 2 mps 753 mmHg 74%
    02:00 +15°C° 0 mm 2 mps 753 mmHg 75%
    03:00 +15°C° 0 mm 2 mps 753 mmHg 75%
    04:00 +15°C° 0 mm 2 mps 752 mmHg 76%
    05:00 +15°C° 0 mm 2 mps 752 mmHg 77%
    06:00 +15°C° 0 mm 2 mps 752 mmHg 78%
    07:00 +14°C° 0 mm 3 mps 752 mmHg 80%
    08:00 +16°C° 0 mm 3 mps 752 mmHg 78%
    09:00 +17°C° 0 mm 3 mps 752 mmHg 75%
    10:00 +17°C° 0 mm 3 mps 751 mmHg 73%
    11:00 +18°C° 0.2 mm 3 mps 751 mmHg 71%
    12:00 +19°C° 0.2 mm 3 mps 751 mmHg 68%
    13:00 +20°C° 0.2 mm 3 mps 750 mmHg 66%
    14:00 +19°C° 0.5 mm 3 mps 750 mmHg 69%
    15:00 +19°C° 0.5 mm 2 mps 750 mmHg 72%
    16:00 +18°C° 0.5 mm 2 mps 749 mmHg 75%
    17:00 +17°C° 0.4 mm 2 mps 749 mmHg 79%
    18:00 +18°C° 0.4 mm 1 mps 749 mmHg 83%
    19:00 +16°C° 0.4 mm 1 mps 749 mmHg 87%
    20:00 +16°C° 0.4 mm 1 mps 749 mmHg 88%
    21:00 +16°C° 0.4 mm 1 mps 749 mmHg 89%
    22:00 +15°C° 0.4 mm 1 mps 748 mmHg 91%
    23:00 +15°C° 0 mm 1 mps 748 mmHg 91%
    Show more